User: anonymous   Login
Location: Unspecified
(0.0000°N, 0.0000°E)
Time: 09:28:45
(UTC+02:00)
Language:

Cosmos 773 Rocket - Orbit

View from above orbital plane
View from above orbital plane
View from above satellite
View from above satellite

Ground track
Ground track

The orbit data is extracted from the following two-line orbital elements,

1  8344U 75094B   15238.56583765 +.00000026 +00000-0 +17003-4 0  9991
2  8344 074.0558 262.8337 0022697 327.1049 032.8691 14.38987340090659
Epoch (UTC): 26 August 2015 13:34:48
Eccentricity: 0.0022697
inclination: 74.0558°
perigee height: 745 km
apogee height: 778 km
right ascension of ascending node: 262.8337°
argument of perigee: 327.1049°
revolutions per day: 14.38987340
mean anomaly at epoch: 32.8691°
orbit number at epoch: 9065

The dashed part of the orbit path shows where the satellite is in the earth's shadow,  

DLR